Weather Roundup
Issued by NWS

Home | Current Version | Previous Version | Graphics & Text | Print | Product List | Glossary Off
Versions: 1 2 3 4 5 6 7 8 9 10 11 12 13 14 15 16 17 18 19 20 21 22 23 24 25 26 27 28 29 30 31 32 33 34 35 36 37 38 39 40 41 42 43 44 45 46 47 48 49 50

000
NZUS93 KARX 222010
HRRWXR

CURRENT HOURLY OBSERVATIONS ACROSS
MUCH OF THE UPPER MISSISSIPPI VALLEY
NATIONAL WEATHER SERVICE LA CROSSE WI
300 PM CDT FRI MAY 22 2015


...SOUTHEAST MINNESOTA...


CITY           SKY/WX    TMP DP  RH WIND       PRES   REMARKS
ROCHESTER      SUNNY     70  37  29 E3        30.23S
ROCHESTER/MAYO FAIR      72  32  23 NW5       30.22S
WINONA         SUNNY     72  36  26 NE3       30.21S
AUSTIN         SUNNY     70  37  30 E7        30.21F
ALBERT LEA     SUNNY     73  34  23 SW5       30.21S
DODGE CENTER   SUNNY     72  32  23 CALM      30.22F
PRESTON        SUNNY     70  31  24 SE3       30.22F
OWATONNA       SUNNY     73  30  20 CALM      30.21F
FARIBAULT      SUNNY     72  36  26 CALM      30.22S
$$

...ELSEWHERE IN MINNESOTA...


CITY           SKY/WX    TMP DP  RH WIND       PRES   REMARKS
MINNEAPOLIS    MOSUNNY   72  33  24 SE7       30.21F
INTNL FALLS    SUNNY     72  30  21 VRB3      30.13F
DULUTH         SUNNY     71  32  23 NW8       30.19S
RED WING       SUNNY     73  30  20 W5        30.20F
REDWOOD FALLS  SUNNY     75  31  19 S7        30.19F
MANKATO        SUNNY     72  34  25 NE6       30.22S
WORTHINGTON    CLOUDY    73  30  20 SW8       30.19S
FAIRMONT       MOSUNNY   73  28  19 E7        30.19F
$$

...SOUTHWEST WISCONSIN...


CITY           SKY/WX    TMP DP  RH WIND       PRES   REMARKS
LA CROSSE      SUNNY     73  35  25 VRB3      30.21S
PRAIRIE DU CHI SUNNY     73  33  22 NE3       30.19F
BOSCOBEL       SUNNY     74  35  24 CALM      30.20F
LONE ROCK      SUNNY     75  36  24 VRB3      30.20F
PLATTEVILLE    SUNNY     73  36  26 SW7       30.21F
FORT MC COY    SUNNY     72  31  22 CALM      30.22S
CAMP DOUGLAS   SUNNY     71  34  25 W7        30.21S
VIROQUA        FAIR      72  34  25 NW6       30.22S
WIS DELLS      SUNNY     71  31  22 SW5       30.21S
$$

...ELSEWHERE IN WISCONSIN...


CITY           SKY/WX    TMP DP  RH WIND       PRES   REMARKS
MILWAUKEE      MOSUNNY   56  31  38 E9        30.27F
MADISON        MOSUNNY   71  38  29 VRB3      30.22S
GREEN BAY      SUNNY     68  32  26 N6        30.23F
EAU CLAIRE     SUNNY     70  31  23 VRB5      30.22S
BLACK RVR FLS  FAIR      72  31  21 W8        30.20S
MEDFORD        SUNNY     66  30  25 SW5       30.22S
WAUSAU         SUNNY     68  33  27 W10       30.20F
WIS RAPIDS     SUNNY     72  26  18 N10       30.23F
MARSHFIELD     SUNNY     68  33  27 W9        30.22F
RICE LAKE      SUNNY     68  30  24 S3        30.23F
$$

...NORTHEAST IOWA...


CITY           SKY/WX    TMP DP  RH WIND       PRES   REMARKS
DECORAH        SUNNY     72  34  25 VRB5      30.20F
MASON CITY     MOSUNNY   73  33  23 VRB3      30.21F
CHARLES CITY   SUNNY     73  32  21 VRB7      30.21S
OELWEIN        MOSUNNY   73  34  23 CALM      30.20F
$$

...ELSEWHERE IN IOWA...


CITY           SKY/WX    TMP DP  RH WIND       PRES   REMARKS
DES MOINES     CLOUDY    77  37  23 NW5       30.21S
IOWA CITY      CLOUDY    74  38  27 CALM      30.21F
FORT DODGE     CLOUDY    72  41  33 CALM      30.21F
$$

...NORTHERN ILLINOIS...


CITY           SKY/WX    TMP DP  RH WIND       PRES   REMARKS
CHICAGO-OHARE  MOSUNNY   66  29  24 E9        30.24S
CHICAGO-MIDWAY MOSUNNY   67  30  25 E12       30.25R
MOLINE         PTSUNNY   76  36  23 VRB3      30.19S
ROCKFORD       MOSUNNY   74  39  28 CALM      30.24S
PEORIA         CLOUDY    79  40  24 W5        30.21S
$$

NOTE: "FAIR" INDICATES FEW OR NO CLOUDS BELOW 12,000 FEET WITH NO
SIGNIFICANT WEATHER AND/OR OBSTRUCTIONS TO VISIBILITY. WIND
SPEEDS ARE IN MILES-PER-HOUR.



USA.gov is the U.S. government's official web portal to all federal, state and local government web resources and services.